Theta_e
337 339 338 341 345 347 346 347 347 346 348 348 348 346 344 343 343 343 342 342 342 342 342 342 343 343 343 345 347 347 348 348 348 348 347 346 346 346 346 346 346 345 346 345 345 346 345 344 344 344 342 342 342 342 341 343 344 344 345 345 345 345 346 342 340 341 343 343 343 343 343 343 344 345 345 345 343 343 341 341 340 337 338 339 342
336 341 341 341 346 347 347 346 347 347 347 348 346 344 343 342 341 341 341 341 341 341 342 342 342 343 344 347 349 348 348 348 348 347 347 346 345 345 345 344 345 345 345 345 344 344 343 343 343 343 341 341 340 340 339 341 342 343 343 343 343 343 343 343 343 343 342 342 341 340 341 341 342 343 344 344 343 342 341 340 339 335 335 341 341
340 342 343 342 345 347 347 346 347 347 348 348 346 344 342 342 342 341 341 341 341 340 340 341 341 341 343 348 348 347 347 347 347 346 346 345 344 343 343 343 342 343 343 342 342 342 342 342 342 342 341 339 340 339 340 341 341 342 342 341 341 341 341 341 341 341 340 341 341 341 342 341 340 342 344 343 344 342 341 341 340 339 334 339 339
340 343 342 342 345 347 347 346 346 347 347 347 346 345 343 342 341 340 340 340 340 340 340 340 340 339 340 347 347 346 347 347 346 346 345 344 343 342 341 342 341 341 341 341 340 341 340 341 341 341 340 340 340 339 339 340 340 341 341 341 341 340 340 340 340 339 338 339 339 337 334 333 337 341 343 343 343 342 341 340 340 340 340 340 339
341 342 340 342 343 345 347 346 347 347 347 347 345 343 342 341 341 340 340 340 339 339 340 340 340 340 344 348 347 347 347 347 345 344 344 343 342 341 340 340 340 340 340 339 339 339 339 340 341 339 338 338 337 337 337 338 339 339 339 340 340 339 339 338 337 338 339 338 337 333 327 329 331 337 339 341 342 341 340 341 341 342 341 341 342
342 342 339 340 341 344 346 347 347 347 347 347 346 343 343 342 341 340 340 339 339 339 339 340 339 338 344 346 346 346 346 345 344 342 341 340 339 339 339 339 339 339 338 339 338 338 339 340 340 339 339 338 337 337 336 337 339 339 339 339 338 338 338 338 337 337 337 336 336 330 330 331 334 337 340 343 344 342 341 340 341 341 341 342 342
343 342 340 341 341 342 345 347 348 347 347 347 346 345 344 341 340 340 339 339 339 339 340 339 339 341 346 346 346 345 345 346 345 344 343 341 340 340 340 339 339 338 338 337 338 340 340 340 341 341 339 338 337 336 336 336 337 338 339 339 338 338 338 337 337 336 335 331 329 331 333 334 333 335 342 342 343 342 341 342 341 340 342 342 341
343 343 342 341 340 341 345 348 347 347 346 345 345 343 342 342 341 340 340 340 339 340 339 339 338 339 345 344 345 345 345 344 345 344 342 340 338 337 337 338 337 337 337 338 339 339 340 340 340 340 339 339 338 336 335 337 337 338 339 338 339 339 338 337 336 335 334 327 328 330 332 333 335 336 341 342 343 342 342 342 341 341 341 340 337
341 342 342 341 340 341 344 347 347 347 345 344 345 344 343 343 342 341 340 340 340 340 339 339 339 339 341 343 342 343 343 342 341 341 340 339 336 336 337 336 336 336 336 337 337 338 338 339 340 340 340 338 338 337 337 337 338 339 339 339 339 339 338 337 336 333 330 328 329 330 332 333 334 335 340 341 339 340 339 337 338 339 338 337 335
341 342 342 340 339 341 345 346 347 346 346 345 345 344 344 342 341 341 340 340 339 339 339 339 338 339 341 340 341 342 344 344 343 343 342 340 337 336 335 336 336 336 336 337 338 338 338 340 340 340 339 338 338 338 338 337 337 339 339 340 339 339 337 336 334 333 327 328 329 330 333 336 333 334 337 339 339 338 336 334 334 335 334 334 334
341 341 341 340 340 341 346 347 347 347 346 345 346 345 344 343 342 341 340 339 339 338 338 338 339 339 339 338 341 341 341 341 341 342 342 339 337 335 335 336 336 336 337 337 338 337 338 339 340 340 341 341 339 339 339 339 339 339 340 340 339 338 337 334 331 326 327 327 328 329 334 336 331 332 337 338 337 336 335 335 334 334 334 334 334
341 342 339 340 343 341 346 346 347 347 345 346 345 345 344 342 342 342 341 340 340 339 339 339 339 338 338 337 337 339 340 339 342 342 342 340 338 335 334 335 336 336 336 336 337 337 338 338 339 340 340 341 339 340 339 339 340 340 339 339 337 336 335 333 327 326 326 327 328 329 329 330 330 332 336 336 335 335 333 333 333 333 333 332 333
340 341 340 339 340 339 344 346 346 346 346 345 345 345 345 343 342 341 341 341 340 340 340 339 338 338 338 338 339 340 339 339 340 341 340 338 337 335 334 333 335 336 336 336 336 337 337 338 340 340 341 340 339 339 339 339 339 339 338 337 336 335 333 331 326 326 326 327 328 329 329 329 331 336 336 336 334 334 332 332 333 333 332 333 332
340 341 341 340 338 344 340 343 345 345 346 345 345 345 345 344 342 341 341 341 340 340 340 339 339 338 338 338 339 337 340 340 340 340 339 337 336 335 334 334 336 337 336 337 337 338 338 339 340 340 339 339 338 338 339 339 339 338 337 336 335 333 331 329 329 325 326 327 328 328 328 330 331 335 336 336 335 333 333 334 333 334 334 334 332
339 340 341 340 340 340 341 339 342 342 343 345 345 344 344 344 342 341 341 341 340 340 339 340 339 339 338 337 337 336 338 338 338 338 338 337 336 335 334 334 335 338 337 336 336 338 339 340 339 339 338 338 338 338 338 337 337 337 336 335 333 331 328 324 325 325 326 327 328 329 329 331 335 335 334 335 335 334 333 333 333 333 332 330 329
340 341 341 341 341 340 340 341 336 336 341 342 343 343 344 344 342 342 341 341 340 340 339 339 339 338 337 337 336 335 336 338 338 337 337 336 335 334 334 333 336 336 337 337 336 337 337 338 338 337 337 337 337 336 336 336 335 335 334 332 331 330 328 326 324 325 326 329 330 330 330 331 333 333 332 333 334 332 332 332 332 329 328 327 327
340 341 341 341 340 339 339 338 335 333 334 337 338 340 342 343 343 342 341 341 340 340 339 339 338 338 337 336 339 339 339 338 337 336 335 334 334 333 334 334 333 335 336 335 335 336 337 336 337 336 336 336 336 336 336 335 334 333 331 330 329 329 327 325 323 324 328 328 328 328 329 330 334 335 335 334 333 331 329 329 327 326 329 330 329
340 340 340 341 340 340 338 336 335 335 335 334 333 337 339 342 341 340 340 340 341 340 340 340 339 339 338 337 337 337 338 338 337 335 334 334 335 334 333 333 333 335 335 335 334 335 336 336 336 336 336 335 335 335 334 333 332 331 330 329 328 326 324 323 321 324 327 329 329 329 330 333 332 331 330 328 329 328 328 328 328 328 328 327 325
339 340 341 340 340 340 339 337 335 334 333 334 333 336 334 338 338 337 339 339 339 339 339 337 337 336 334 332 332 333 333 335 337 336 335 334 334 334 332 335 334 336 335 334 333 334 335 335 335 335 335 334 334 333 332 331 330 329 327 326 324 322 322 322 321 324 327 328 328 329 329 330 328 328 328 331 331 330 330 330 328 328 328 326 324
337 338 339 340 340 340 339 339 337 334 331 332 334 335 333 331 334 335 335 337 337 337 336 333 331 328 328 328 326 325 325 324 325 326 331 331 330 327 332 334 334 334 333 333 333 333 335 335 334 334 334 333 332 331 330 329 328 327 325 323 321 320 318 319 321 322 324 326 328 327 329 330 329 329 331 332 331 330 327 325 324 324 324 321 322
336 337 338 339 340 339 338 338 338 335 332 332 335 336 334 330 331 331 331 332 332 333 332 325 323 323 323 322 322 320 320 321 322 322 323 324 324 325 332 333 333 333 333 332 332 332 333 333 333 331 329 327 324 324 325 326 325 324 322 319 317 316 316 317 318 320 322 322 325 325 330 331 331 331 329 327 325 325 325 328 327 323 322 322 322
332 334 337 339 339 339 338 338 338 337 335 335 337 338 335 332 331 330 329 329 327 326 324 322 324 318 320 320 318 319 318 318 320 324 321 323 323 323 325 330 332 331 332 331 331 331 331 331 329 328 326 322 318 312 313 318 320 319 317 314 311 311 314 316 316 319 321 323 325 327 331 331 330 329 326 329 329 328 325 323 323 323 323 322 321
331 333 335 337 338 339 338 338 338 338 337 337 337 337 337 335 333 331 328 325 326 324 322 321 318 318 316 317 316 317 316 316 317 319 319 321 322 322 324 328 330 329 330 330 329 330 329 328 326 324 321 317 310 308 308 306 308 313 311 309 308 308 311 316 317 318 318 318 320 327 331 331 330 330 329 328 328 326 323 323 323 323 322 322 321
332 333 334 337 338 337 338 338 338 338 337 336 336 337 337 337 336 333 327 325 323 323 321 319 318 317 317 317 317 315 315 317 321 322 321 319 320 321 323 324 325 324 322 321 325 326 325 324 321 318 314 310 307 306 307 306 306 306 307 306 306 307 310 313 316 317 317 318 318 324 330 329 329 329 328 327 327 326 323 322 322 322 321 320 321
333 334 333 335 337 337 338 338 338 338 338 337 335 336 337 337 337 334 328 323 322 321 320 320 318 317 316 316 316 314 315 316 315 315 316 317 317 318 319 317 317 313 314 309 308 308 308 306 307 307 306 307 307 306 306 306 306 306 306 305 306 307 308 310 313 316 315 316 317 322 329 329 329 329 326 325 327 325 322 322 322 322 320 320 321
332 331 332 334 336 337 338 338 338 338 337 337 335 335 337 336 336 335 330 325 322 320 320 320 319 318 316 316 316 315 315 315 313 313 315 316 317 315 315 314 313 309 308 305 304 304 304 305 305 305 304 305 305 304 303 304 305 304 304 304 306 306 307 309 310 311 311 313 314 319 327 330 329 328 326 327 325 325 323 322 321 320 320 320 320
332 332 333 334 335 336 337 337 337 338 337 338 336 334 336 337 337 334 331 327 324 320 319 318 319 317 317 316 317 315 314 314 315 313 314 314 316 314 313 313 313 309 306 305 303 302 304 304 304 303 303 304 303 302 303 302 302 304 303 303 303 304 305 306 308 310 310 311 311 316 325 329 329 328 327 326 323 325 323 322 321 321 320 319 319
331 332 333 334 334 335 337 337 337 337 337 337 336 334 336 337 336 333 332 328 325 322 320 319 318 318 317 317 316 316 316 315 314 314 314 312 315 314 313 312 312 307 305 304 302 301 302 303 303 302 303 302 303 301 302 302 301 301 303 301 302 304 303 304 306 308 308 309 309 313 321 326 328 327 327 325 325 324 322 320 320 320 321 320 319
330 332 333 333 334 335 336 336 336 336 337 338 336 335 336 336 336 334 333 327 328 325 322 319 318 317 317 316 316 315 315 315 315 314 313 313 313 312 311 312 310 306 304 303 302 302 302 302 303 303 302 302 302 302 301 301 301 300 302 301 301 301 302 303 304 305 306 306 307 309 318 324 328 328 327 324 325 326 323 322 321 320 319 319 318
331 332 332 333 334 335 335 335 336 336 337 337 336 335 335 335 335 334 334 329 330 328 324 319 318 317 317 316 316 316 316 315 315 313 314 313 311 309 312 311 310 305 304 303 301 301 301 301 301 302 302 302 302 300 301 300 300 299 300 301 301 301 301 302 303 304 306 307 306 308 314 322 327 328 326 324 325 325 323 324 324 322 321 319 318
330 331 332 333 332 334 334 335 336 333 337 336 336 336 335 335 335 335 334 331 332 331 326 322 319 317 318 317 316 316 315 314 314 313 312 312 311 311 311 308 308 304 303 303 300 301 301 301 302 302 302 301 300 299 301 301 298 299 299 299 299 300 301 302 302 304 306 307 307 306 308 316 321 325 327 323 325 324 322 321 322 321 321 320 319
327 329 332 333 333 334 334 335 336 335 335 336 335 336 335 335 335 335 334 333 333 332 330 325 320 319 318 317 316 316 315 314 313 312 313 312 311 310 309 309 308 303 303 302 300 300 300 299 299 299 299 299 299 298 298 301 298 297 297 298 298 299 300 300 301 304 306 306 306 305 304 309 313 317 322 326 324 323 321 321 321 321 321 320 320
325 327 330 331 332 333 334 335 335 335 335 335 336 336 336 335 335 335 334 334 333 333 331 329 325 321 320 318 316 316 315 314 313 312 311 311 310 309 308 308 307 304 303 301 300 298 298 298 298 297 297 298 298 297 297 297 297 295 296 296 296 297 297 298 299 302 304 302 304 305 304 305 307 310 314 320 325 323 320 320 323 321 320 320 318
323 321 323 328 332 333 334 335 335 335 334 335 336 336 336 336 336 336 334 333 333 333 332 331 329 324 322 320 317 316 315 315 314 311 310 309 309 309 309 308 307 303 304 301 300 299 298 298 297 297 298 298 298 297 298 297 294 294 294 293 294 294 295 296 296 297 298 299 302 304 304 302 303 306 307 312 318 322 321 319 319 318 319 321 319
319 319 322 325 327 332 333 334 333 335 333 334 334 335 336 336 335 336 335 334 333 332 333 333 331 328 324 323 320 317 316 317 316 314 311 309 309 309 310 311 310 306 306 304 302 300 300 299 298 298 297 298 298 298 299 298 296 296 294 293 293 293 294 294 294 296 297 296 298 299 303 303 301 302 303 303 307 315 321 321 320 319 319 319 318
320 321 321 321 325 328 331 332 333 333 334 333 334 335 335 336 336 331 335 334 333 333 333 333 332 330 326 325 324 321 318 318 317 316 313 311 310 310 311 311 310 308 308 305 303 301 300 300 300 301 300 298 298 298 298 298 297 295 294 292 292 294 293 293 294 294 294 294 297 297 300 301 301 301 301 301 303 306 313 315 321 320 318 318 317
319 319 320 319 322 325 327 330 332 333 334 334 334 334 335 335 335 335 335 334 334 333 333 333 333 332 329 327 326 323 320 319 318 317 315 312 311 310 310 310 310 309 308 306 304 303 301 301 300 301 303 300 299 299 297 297 296 294 293 292 292 293 294 293 293 294 295 295 295 295 296 297 299 300 299 299 299 300 307 312 317 319 320 319 317
317 318 320 320 321 322 325 328 331 333 333 333 333 334 334 334 334 334 332 334 334 334 333 333 333 333 332 329 328 326 322 320 319 318 317 315 313 311 309 309 309 309 308 306 304 303 302 302 300 300 302 301 299 299 297 296 296 294 292 292 292 292 293 294 294 295 294 295 296 295 294 294 296 297 296 297 298 298 298 303 309 310 311 314 318
316 316 317 318 319 320 322 323 326 330 331 332 331 332 333 332 333 332 331 332 333 334 334 333 333 333 332 332 330 328 324 323 321 320 318 317 314 311 309 307 308 308 307 306 305 303 301 301 301 300 300 301 301 300 298 296 295 294 293 291 291 290 291 292 293 292 293 294 295 296 293 293 294 294 295 294 294 296 296 294 294 295 301 314 318
314 315 314 316 317 318 319 322 323 327 329 330 329 329 329 328 328 328 329 329 331 329 331 333 333 333 332 332 332 331 328 325 324 322 320 318 315 313 311 308 308 307 307 306 306 304 301 300 300 300 299 298 299 298 296 295 293 292 292 291 290 290 291 291 291 291 292 292 293 293 294 293 291 293 292 292 293 294 294 294 295 294 297 305 312
310 312 314 315 316 318 318 319 322 323 325 327 327 327 326 327 327 328 328 328 328 329 329 330 331 332 332 333 332 332 331 327 325 324 322 317 317 315 312 309 306 306 306 307 307 306 304 302 302 300 299 297 295 296 295 296 294 293 292 291 291 290 291 292 290 289 290 291 291 292 293 292 292 291 292 290 291 292 293 294 294 292 294 294 298
308 310 312 315 316 317 317 319 319 321 324 326 327 327 328 329 328 328 328 328 326 325 326 327 329 329 330 331 331 332 332 330 325 326 324 322 319 316 314 312 309 306 306 307 307 305 305 303 302 299 299 298 296 295 296 297 295 296 294 292 291 290 289 289 289 289 289 290 290 290 290 291 292 291 289 288 290 291 292 291 291 292 293 292 292
304 308 311 312 313 315 317 317 318 320 322 323 324 325 327 327 328 327 328 325 322 325 327 325 324 326 327 329 330 331 331 331 329 326 326 324 322 320 317 315 311 308 306 307 308 307 306 304 302 300 298 297 297 296 296 299 298 295 293 293 292 292 295 291 289 288 289 289 289 289 290 289 290 291 289 289 290 291 291 290 290 291 292 292 292
302 303 308 311 313 313 316 317 318 319 320 321 319 322 319 318 318 318 318 323 321 317 319 316 321 323 325 326 328 329 330 330 330 328 327 326 325 323 321 318 315 311 308 307 306 305 306 305 303 301 300 296 295 293 296 297 297 296 292 295 291 291 291 296 294 292 289 289 289 289 289 290 289 289 287 288 289 289 290 289 290 291 291 291 291
300 303 305 309 312 313 314 316 316 317 318 317 318 315 314 312 311 311 311 314 312 314 314 317 318 319 321 323 325 326 328 329 330 329 326 327 326 325 324 322 319 315 311 309 308 307 307 306 304 301 300 300 297 294 294 296 297 301 300 289 287 288 293 295 290 292 286 287 287 288 289 289 289 289 288 288 288 288 289 289 289 288 289 290 290
297 300 303 307 307 310 311 312 313 313 316 315 315 315 316 317 315 318 317 316 318 316 316 319 318 318 320 322 322 324 326 327 329 330 328 327 328 327 326 324 322 319 315 313 312 310 308 307 305 303 301 301 301 297 294 295 297 298 299 298 296 299 293 290 294 297 288 288 288 288 288 288 289 289 288 288 288 287 288 288 288 288 288 288 290
293 295 298 303 305 307 308 311 312 311 311 311 313 314 314 315 316 319 319 318 318 319 319 316 320 318 314 318 321 322 324 325 326 328 329 328 328 328 327 325 324 322 318 316 314 312 311 309 307 305 303 302 301 298 296 295 295 296 296 297 294 293 294 291 292 293 292 289 286 287 287 287 288 288 289 288 287 287 287 287 288 287 286 287 289
292 291 296 299 303 305 305 308 308 309 309 311 312 315 316 315 314 315 315 317 317 318 314 313 307 308 311 314 316 319 321 323 325 326 328 328 327 328 329 328 326 324 319 316 315 314 313 311 308 307 305 303 302 301 299 296 293 294 295 294 295 295 294 293 294 295 295 291 291 287 287 287 287 287 289 289 288 287 286 286 286 286 286 286 287
291 292 295 297 299 301 302 303 307 308 307 309 311 312 314 315 315 315 315 315 315 315 307 305 308 304 307 307 310 315 318 320 322 323 325 326 325 325 327 327 326 325 317 319 317 316 315 313 310 307 305 304 302 302 302 299 296 297 295 294 294 295 294 292 292 290 292 294 296 292 288 286 286 287 287 288 289 288 287 288 288 287 287 286 287
290 291 292 294 296 298 301 302 304 304 304 306 309 310 311 311 313 313 314 315 311 308 305 305 303 301 306 306 306 309 314 317 319 321 322 323 324 323 323 325 326 326 320 320 319 318 316 315 313 310 308 305 305 303 302 303 300 299 299 297 294 294 293 292 292 290 289 292 296 294 291 288 285 287 287 288 288 289 289 290 289 288 287 287 287
290 290 292 292 293 296 298 301 302 301 301 305 307 309 310 311 313 313 313 313 311 307 306 306 302 300 304 304 304 306 308 312 315 316 318 320 321 320 322 323 324 321 321 322 322 321 318 316 315 312 309 307 306 304 302 303 303 300 299 298 297 296 295 293 294 292 292 291 288 291 292 290 291 291 288 288 289 290 289 289 287 287 287 288 289
Wind_Speed
4 6 5 9 10 9 10 9 10 9 10 12 12 12 11 12 12 11 10 11 12 12 12 11 12 12 12 13 15 14 15 15 16 16 16 16 17 16 16 16 16 17 17 17 17 17 17 17 16 17 17 16 15 15 15 16 17 18 18 18 19 19 18 17 16 14 13 16 17 18 18 17 19 20 20 20 20 19 16 17 15 14 11 15 21
7 5 5 5 10 9 10 8 10 9 11 12 12 12 12 12 12 11 10 10 10 12 11 11 12 13 13 14 14 14 14 15 16 16 16 16 16 16 15 14 15 16 17 17 17 16 17 17 16 17 17 15 15 16 16 16 17 18 18 19 19 19 19 17 16 14 14 15 17 16 17 18 18 18 19 20 20 19 15 16 18 11 9 20 21
6 7 5 5 10 10 8 10 9 9 12 13 13 12 11 11 11 11 10 10 10 10 11 12 12 12 12 15 14 13 14 15 15 17 16 16 16 15 15 14 13 14 14 15 16 16 16 17 17 17 16 17 16 16 16 17 17 18 18 19 19 18 18 17 16 16 16 16 14 13 13 18 18 18 19 19 19 19 15 16 17 17 12 21 19
8 7 6 7 8 9 10 9 10 11 12 12 14 12 11 12 12 11 11 10 10 11 11 11 12 11 12 15 14 14 15 16 17 16 16 16 16 15 14 13 13 14 15 15 15 14 14 15 16 16 16 16 16 16 17 16 17 17 18 18 17 17 16 15 15 15 13 12 12 10 7 7 12 19 19 19 20 20 17 18 19 20 20 19 21
7 7 5 6 5 7 10 9 10 12 12 13 13 11 11 12 12 11 10 11 11 12 12 12 12 11 14 15 14 14 15 16 16 16 15 15 14 14 14 13 13 14 15 15 14 13 14 15 17 16 16 16 16 16 16 16 17 17 17 17 16 15 15 14 13 12 12 13 12 8 5 6 7 16 18 19 19 18 18 20 20 20 20 21 20
7 5 5 4 4 5 10 10 10 12 13 13 12 11 11 12 12 11 10 11 11 12 12 12 11 11 14 14 14 13 14 16 15 15 15 15 14 14 13 13 13 14 14 13 14 14 14 15 16 16 16 16 17 17 16 16 16 16 16 16 15 15 14 13 13 13 13 12 9 5 5 5 6 9 19 19 19 16 17 19 20 19 21 22 21
7 5 4 4 3 3 8 10 11 12 14 12 11 11 12 12 11 11 11 10 11 11 11 12 11 12 13 13 14 13 14 15 16 16 15 15 15 14 13 13 13 13 14 14 14 14 14 14 15 17 17 16 16 17 17 17 17 16 16 15 15 15 14 14 13 12 12 7 6 6 6 6 4 5 18 18 19 19 20 20 20 20 22 21 21
5 5 5 4 4 5 7 9 11 13 13 12 12 11 11 11 11 11 10 10 11 11 11 11 10 11 14 13 13 14 14 14 15 15 15 15 14 13 13 12 13 13 14 14 14 13 13 14 14 15 16 16 15 16 17 16 16 15 15 14 15 14 14 14 12 11 11 6 6 6 7 7 7 6 18 19 19 20 21 21 21 22 21 19 13
6 6 5 4 4 8 7 10 12 14 13 12 12 11 11 11 11 11 10 10 9 10 10 11 11 10 12 12 12 12 13 13 13 13 14 14 13 13 12 13 14 14 14 13 13 13 14 14 15 15 16 16 16 15 15 14 15 15 14 14 14 14 14 13 12 11 7 6 7 6 7 7 7 7 17 21 21 21 21 17 18 21 21 17 17
5 6 6 4 5 8 9 10 12 13 13 12 12 12 11 11 11 11 10 10 9 9 9 10 10 11 11 11 12 12 13 14 14 15 16 15 14 13 13 14 13 13 12 12 12 12 13 15 15 15 14 14 14 15 14 15 14 14 14 14 15 15 14 13 12 9 6 5 5 5 7 9 5 7 16 20 21 21 18 16 15 13 13 18 21
6 5 5 5 5 8 10 12 11 12 14 12 12 12 11 11 11 11 11 10 9 9 9 10 10 10 11 12 12 12 12 13 13 13 14 15 14 12 12 13 13 13 12 11 12 13 13 13 14 14 14 14 14 15 15 15 15 15 14 14 15 14 14 13 10 6 6 6 6 5 9 12 6 6 18 20 20 19 14 15 16 17 18 19 20
7 5 4 4 7 9 10 11 11 12 13 12 12 12 12 11 11 11 10 11 10 10 9 9 9 10 11 11 10 11 11 12 14 14 14 15 14 12 11 12 11 13 12 12 12 12 12 12 13 14 14 14 14 14 15 15 16 15 14 14 15 14 13 12 7 6 6 6 5 5 5 5 6 12 19 18 18 18 17 17 18 18 19 18 19
6 5 4 4 4 7 9 10 10 12 13 13 12 12 12 11 11 11 11 10 10 10 10 9 8 7 9 11 11 11 11 12 13 13 13 15 13 12 10 11 13 13 11 11 11 11 11 12 13 14 15 14 13 13 14 15 15 15 14 14 14 13 12 10 6 6 6 6 6 6 5 4 6 17 19 19 19 17 17 17 17 17 19 18 19
7 5 4 3 3 7 8 9 9 10 10 10 12 12 12 12 12 11 11 11 10 10 10 10 9 8 9 12 11 11 12 12 14 13 13 14 14 12 11 11 13 13 12 12 12 11 12 13 14 14 14 14 13 13 14 15 15 14 14 13 12 12 10 7 6 5 6 5 5 5 4 5 7 18 19 19 19 19 18 18 18 18 19 19 21
8 7 5 4 4 3 8 8 9 9 9 9 10 11 12 12 11 11 11 12 11 11 11 10 9 9 10 11 11 12 13 12 12 12 13 14 13 13 11 11 14 14 12 12 12 12 13 14 15 15 15 15 15 14 14 14 14 14 13 13 11 10 9 5 5 5 5 4 4 5 5 6 14 17 18 18 18 18 18 18 18 19 19 20 18
7 8 6 4 4 4 5 7 8 9 9 9 8 9 10 11 11 10 11 11 11 11 11 10 10 9 10 10 10 10 11 12 11 11 11 11 12 12 11 11 14 13 13 11 11 11 13 13 14 15 14 15 15 15 15 14 14 13 13 11 10 9 8 6 5 5 5 5 4 5 6 7 16 16 16 17 18 18 17 18 18 17 16 16 16
6 6 7 5 4 4 4 4 5 9 9 9 8 9 8 9 10 10 9 9 9 10 10 10 9 9 9 9 7 7 10 10 11 10 10 9 10 11 9 10 11 13 12 11 11 11 12 12 14 13 14 14 14 14 14 14 14 13 12 11 9 10 11 8 5 4 5 4 4 4 4 6 15 19 20 19 19 17 15 15 15 15 17 18 18
6 6 7 6 5 5 4 4 5 5 5 7 7 9 8 9 10 9 9 8 9 8 8 8 8 7 7 7 8 9 9 8 9 9 9 10 11 10 10 9 10 12 11 10 10 10 11 13 13 13 13 13 13 13 13 13 13 12 12 11 10 11 10 8 5 4 5 4 5 3 3 9 16 16 16 15 16 15 15 16 16 15 16 16 17
5 6 6 6 5 5 5 4 4 4 4 4 3 6 8 8 9 9 9 9 8 8 7 7 6 7 7 7 8 8 7 8 8 8 10 11 9 8 8 6 11 13 11 11 10 11 11 12 13 13 13 14 13 13 13 12 11 11 11 10 11 11 9 6 4 4 4 4 4 6 7 14 14 14 14 16 16 16 16 17 17 17 17 17 15
6 7 6 6 5 5 5 5 5 4 4 4 4 4 7 8 9 9 9 8 8 8 7 7 8 8 8 9 9 8 8 8 10 8 9 9 9 7 6 5 13 11 10 11 10 10 11 12 13 13 14 14 14 13 12 12 11 10 9 8 10 9 6 4 4 5 4 4 4 4 8 11 15 15 16 16 16 16 15 13 14 14 15 14 14
4 6 6 6 6 6 6 5 5 5 4 4 4 5 5 7 7 9 9 8 7 6 7 8 7 7 7 8 8 6 5 5 6 5 8 6 10 10 6 5 7 10 10 10 10 10 12 12 13 13 14 13 12 12 11 11 11 10 10 9 8 6 5 5 5 4 3 2 2 3 7 13 16 15 15 13 12 13 14 17 17 15 13 12 13
7 6 6 6 7 6 8 7 5 6 5 5 4 4 5 5 4 4 4 5 6 7 6 4 5 4 6 5 4 4 5 4 5 6 5 6 8 10 8 6 7 6 10 10 9 10 11 12 13 13 13 11 9 7 6 8 10 9 8 8 6 4 4 5 4 4 3 2 0 4 10 14 14 14 12 14 14 14 14 13 14 15 14 13 13
8 7 6 8 6 6 7 8 7 6 6 5 5 5 5 4 3 3 4 5 5 5 4 4 3 4 4 4 4 3 4 3 4 4 4 7 7 9 9 8 6 6 9 9 9 10 12 12 12 12 11 10 6 5 5 5 5 7 7 6 5 4 3 4 3 4 2 1 2 3 10 14 14 14 14 14 12 13 11 11 11 14 15 15 14
9 8 7 6 6 7 8 8 7 7 7 5 5 5 5 5 4 4 4 4 4 4 4 4 4 3 4 4 4 3 3 3 5 8 7 5 6 8 9 8 7 7 10 6 8 9 11 11 11 10 7 4 5 5 5 5 5 4 4 4 4 4 4 3 3 4 2 3 3 6 7 11 12 14 14 13 13 13 12 11 12 12 12 13 13
6 5 5 7 7 7 8 8 7 7 7 6 7 6 5 5 5 5 4 4 4 4 4 4 4 4 4 4 4 3 3 4 3 3 5 5 5 5 5 4 4 4 7 5 4 4 5 5 5 5 5 4 5 4 4 4 4 4 4 4 4 4 4 3 2 4 3 3 3 6 5 8 13 15 11 12 13 12 11 10 10 12 12 12 13
4 6 8 7 8 7 7 7 7 7 7 6 7 7 6 5 5 5 5 4 4 4 4 4 4 4 4 4 5 5 4 5 3 3 4 4 5 5 5 5 5 4 3 5 4 4 3 4 4 5 4 4 5 4 3 3 4 4 4 3 4 4 4 3 3 4 3 2 4 8 0 12 13 11 11 13 11 13 12 11 11 10 10 12 13
7 7 6 6 7 7 7 7 8 7 8 6 6 6 6 5 5 5 6 5 4 5 5 4 4 4 4 5 6 5 4 5 4 4 4 4 5 5 5 5 5 5 4 6 4 3 4 4 4 4 3 4 4 3 4 3 3 4 3 3 3 3 3 3 3 4 2 2 3 7 1 9 10 12 14 14 10 12 12 10 11 12 10 11 11
6 7 7 7 7 8 8 8 8 7 7 7 7 7 6 6 5 6 6 6 6 5 5 5 4 5 5 5 5 5 6 5 4 4 4 3 5 4 4 5 5 5 4 5 5 3 4 4 4 3 4 3 5 3 4 3 3 3 4 3 3 3 3 3 4 3 3 4 3 4 4 6 11 12 13 12 12 12 9 8 8 9 13 12 10
8 8 7 7 8 8 8 9 8 8 7 7 7 8 6 6 5 6 7 7 6 5 5 4 5 5 4 5 5 6 5 5 6 5 4 4 4 4 5 5 4 5 5 4 5 4 4 4 5 4 4 4 4 4 3 3 3 3 3 3 3 3 3 2 3 3 3 3 3 4 5 3 5 11 13 10 11 13 12 11 10 9 7 9 10
11 9 8 8 7 8 9 10 9 9 8 7 6 7 7 7 7 6 6 7 7 6 5 5 5 5 5 5 5 5 6 6 6 4 5 5 4 3 4 4 4 3 5 5 3 5 5 4 4 4 5 4 4 3 4 4 3 2 2 3 2 3 2 3 2 3 3 3 3 2 5 1 6 10 12 9 13 12 11 13 13 12 11 11 10
9 10 10 8 6 8 9 9 9 8 7 8 7 7 8 7 7 6 6 6 7 6 5 5 5 5 5 5 5 5 5 5 5 5 4 4 4 4 4 3 3 3 2 3 2 3 3 4 4 5 5 4 3 2 4 4 3 3 2 2 1 1 2 1 1 3 4 3 3 2 1 6 5 2 6 11 14 12 9 10 11 11 11 10 10
11 13 10 7 7 9 9 9 9 9 9 9 7 7 8 8 7 7 7 6 7 7 6 6 6 5 4 5 5 5 5 4 5 5 5 5 5 5 3 4 3 2 2 3 3 2 2 3 3 2 2 3 4 2 2 4 3 2 2 2 1 1 1 1 1 3 4 3 3 1 0 1 5 4 2 9 13 13 11 11 11 11 11 10 10
9 8 8 8 11 9 9 10 10 9 10 10 8 8 7 7 7 7 7 7 6 6 7 7 6 6 5 5 5 5 5 5 5 6 5 5 5 5 4 4 3 4 3 3 4 3 3 3 3 3 3 3 3 2 2 2 3 2 1 1 1 1 0 1 0 2 3 3 3 2 1 2 2 6 5 2 10 13 11 10 15 13 11 11 11
7 5 5 11 9 7 7 7 9 11 11 9 8 7 7 7 7 6 7 8 7 7 6 6 7 6 6 6 5 5 5 5 5 5 4 4 4 5 5 4 4 4 4 4 5 4 4 4 3 4 3 4 3 2 3 2 1 1 2 1 1 1 1 1 1 1 1 1 3 3 1 1 4 3 5 1 4 9 10 9 9 9 12 14 12
5 6 10 9 8 9 8 7 9 10 10 11 10 9 7 7 7 7 6 8 8 8 7 5 7 8 7 6 6 6 6 6 6 6 6 5 5 5 6 6 5 5 5 4 5 4 5 5 5 5 3 2 2 2 2 2 2 2 1 1 1 1 1 1 1 0 0 1 1 3 3 2 3 1 3 5 1 4 5 11 14 13 12 13 10
10 9 7 6 9 9 9 10 9 11 11 11 10 9 9 8 7 7 7 7 7 8 8 8 6 7 8 8 8 8 8 8 7 7 6 7 6 6 6 5 7 6 5 5 5 6 6 5 6 6 6 4 4 4 2 3 3 2 1 1 1 1 1 1 1 1 2 3 4 2 1 4 1 4 2 4 4 2 1 4 7 12 11 11 11
8 8 9 7 9 9 10 11 12 12 11 10 10 8 8 8 8 8 8 8 7 7 7 7 8 7 7 8 9 9 8 8 8 8 7 8 7 7 6 7 6 6 7 7 6 5 6 6 6 6 6 6 5 4 3 3 3 3 1 1 0 0 0 1 1 0 1 2 3 3 1 2 4 3 3 3 1 2 3 1 3 3 8 13 13
8 8 8 10 11 8 10 11 11 11 10 10 10 10 8 7 7 7 7 8 8 7 6 7 8 8 7 8 9 10 9 9 8 7 7 7 7 7 6 8 9 9 8 8 9 8 7 7 7 6 7 7 6 7 6 4 2 2 2 1 1 0 1 1 1 1 2 3 4 4 2 2 2 2 4 2 2 3 2 1 2 1 1 5 11
8 9 7 8 6 7 8 9 10 9 10 9 8 8 8 7 6 6 7 8 7 7 8 8 7 7 8 8 9 9 10 11 12 11 9 7 6 7 7 8 8 9 8 8 8 9 8 8 8 7 4 4 7 8 7 5 3 2 2 2 1 1 2 2 2 2 4 4 3 2 2 2 2 2 4 2 1 2 4 2 1 1 0 0 1
7 6 7 7 8 8 7 8 9 9 7 7 6 7 6 7 7 5 7 8 7 6 5 7 8 9 9 9 9 9 9 9 9 8 8 7 7 7 8 6 6 4 6 7 6 6 9 9 9 10 9 4 1 3 6 7 4 2 0 2 2 2 3 3 3 4 4 3 4 3 4 3 3 4 4 4 3 4 2 3 3 1 0 1 2
7 8 9 10 11 12 10 12 10 8 8 8 8 8 9 7 7 9 10 6 6 6 6 6 5 5 8 10 11 9 9 11 12 12 12 11 10 8 7 7 8 10 10 10 10 11 10 10 8 5 8 8 6 6 5 6 7 2 0 3 4 2 4 4 5 4 5 4 4 5 4 4 5 4 4 3 4 3 5 4 4 4 2 1 1
10 9 12 14 11 8 10 11 6 8 10 11 10 9 10 10 9 9 8 6 6 7 7 6 7 5 6 7 8 10 11 10 9 9 10 10 10 10 11 10 7 6 6 5 5 6 4 4 3 5 4 7 6 5 5 7 2 8 5 3 4 4 6 5 5 5 6 6 5 5 4 5 6 5 3 4 5 4 3 3 3 3 4 4 2
7 9 10 7 7 9 11 10 9 9 10 10 9 11 9 8 9 6 7 5 4 6 6 5 5 6 6 7 7 7 7 8 10 12 11 10 10 10 10 9 11 10 9 8 7 7 7 9 7 6 4 3 1 3 8 10 5 3 2 3 3 2 4 5 5 8 10 8 6 6 6 6 7 5 4 4 5 5 3 4 4 4 3 3 4
5 5 7 10 8 8 9 10 10 9 9 10 10 7 5 4 3 2 2 4 4 3 4 4 5 7 8 6 6 6 6 7 7 8 9 11 12 11 9 8 9 9 10 10 11 13 12 11 11 11 9 7 6 7 10 12 6 9 3 8 2 2 5 9 10 9 9 8 8 8 6 8 7 6 4 7 6 5 5 4 6 5 4 4 3
6 6 5 7 7 9 7 6 6 7 6 6 8 4 4 4 3 2 2 1 1 1 3 5 6 6 6 7 8 5 5 7 8 10 9 9 10 10 9 9 9 10 10 10 10 11 11 12 13 11 12 12 10 6 8 10 11 11 5 6 2 1 9 3 2 5 5 6 10 9 8 8 8 7 6 8 6 7 6 6 5 4 5 5 5
5 5 5 6 5 5 5 5 5 4 5 4 5 5 6 7 6 6 6 6 7 6 9 10 8 8 10 6 5 7 7 7 6 7 9 10 10 10 10 10 9 8 9 9 9 9 10 9 11 12 12 11 10 8 8 7 10 10 10 4 2 6 5 3 2 7 0 7 3 8 10 10 8 7 8 8 9 8 7 7 6 7 6 6 6
5 4 4 5 6 5 5 5 5 4 4 4 5 6 6 6 9 10 10 10 10 10 8 6 7 7 4 6 7 6 8 9 9 8 8 8 9 9 9 10 9 9 9 10 11 12 11 11 9 9 11 12 11 11 13 10 7 10 11 11 8 2 3 7 8 2 6 1 5 7 9 7 6 8 10 10 9 8 7 7 7 6 6 6 5
4 3 3 3 4 5 4 5 4 5 5 5 7 8 8 8 8 9 9 9 10 11 7 6 4 4 5 7 6 7 7 9 9 9 9 8 7 8 9 10 10 11 10 9 9 7 5 6 9 12 10 8 10 12 11 8 12 11 13 13 14 6 4 2 2 7 6 4 5 4 5 7 6 9 11 11 11 9 8 7 7 7 7 7 6
3 2 1 1 1 2 3 4 5 5 4 6 7 7 8 8 9 8 9 9 8 7 3 3 5 4 5 5 6 6 7 8 9 10 9 9 7 7 8 9 9 9 8 10 12 13 15 14 13 12 13 13 13 14 11 12 12 12 9 12 12 11 5 3 1 1 7 8 12 7 7 3 6 9 11 11 10 9 10 8 6 8 8 6 6
4 3 2 1 1 2 3 4 4 3 4 5 6 6 7 7 8 8 10 9 6 4 2 4 4 3 6 5 5 5 6 7 7 8 9 8 8 7 7 8 9 9 8 9 8 8 8 9 11 12 13 14 12 12 15 12 12 12 11 8 9 8 6 6 7 8 6 8 14 8 7 9 9 11 11 12 14 10 8 7 7 10 9 7 8
4 4 4 3 2 2 3 3 2 2 3 5 6 8 7 7 9 9 10 10 7 5 5 6 4 4 6 6 5 6 5 6 5 6 7 7 8 8 8 8 8 8 8 8 10 12 13 13 12 11 12 14 12 13 12 11 10 11 12 11 13 12 14 14 15 12 12 9 7 11 10 9 12 8 7 10 9 10 9 9 11 11 9 8 7
Wind_Direction
210 159 172 169 154 157 151 142 140 134 117 101 104 99 97 96 95 92 95 101 100 100 104 107 100 96 94 90 86 87 92 93 91 89 85 84 82 81 82 83 83 83 83 82 81 81 83 84 87 85 79 79 77 76 81 81 77 73 71 67 67 63 66 75 78 70 70 86 85 83 82 82 81 80 80 77 76 74 70 70 68 67 65 72 74
168 158 166 170 160 152 145 142 138 130 112 106 103 97 95 95 96 96 101 105 107 112 115 112 109 106 105 95 89 88 89 94 93 91 87 84 83 82 81 83 85 84 84 81 80 81 80 80 80 79 78 79 82 86 84 82 80 77 72 70 69 69 67 62 56 58 67 76 83 86 85 83 84 83 82 80 79 80 79 79 77 73 72 75 73
134 146 154 167 160 147 149 144 131 124 111 107 100 98 98 97 96 105 105 102 107 108 108 108 102 102 99 91 90 91 92 92 93 89 89 87 84 84 85 87 90 93 86 83 83 83 83 82 82 80 80 81 83 86 86 82 82 78 73 73 72 70 65 58 57 55 55 46 44 44 75 88 85 84 84 82 80 79 79 81 81 81 82 80 78
139 143 149 157 168 153 147 149 136 127 109 107 101 99 106 103 100 98 104 106 107 110 110 103 96 98 99 91 91 90 97 97 90 88 88 88 87 87 89 91 92 90 92 91 88 86 89 90 89 88 89 90 88 88 88 87 83 78 76 74 69 65 63 59 53 48 44 43 47 53 56 57 75 82 80 80 80 77 75 78 80 82 81 81 80
131 142 149 150 163 156 146 149 142 122 114 103 104 106 102 99 98 100 104 110 114 114 113 111 111 111 95 86 91 99 98 93 93 92 91 90 89 90 90 88 90 92 91 89 89 90 91 92 90 89 90 90 91 93 95 92 84 82 79 74 69 65 62 58 56 55 50 51 50 52 55 65 75 80 84 85 85 83 82 81 80 79 79 79 79
138 135 144 143 151 158 148 153 142 122 113 111 112 112 105 102 102 102 107 112 113 110 108 107 105 108 100 94 94 96 98 99 97 94 94 92 90 89 92 95 95 94 94 93 90 89 93 95 95 93 91 91 94 96 96 95 92 85 76 71 69 64 58 58 58 53 50 48 43 40 37 52 74 86 93 91 80 74 84 88 87 86 82 78 76
133 133 140 144 143 159 152 155 138 122 112 114 115 114 110 106 107 106 105 107 107 106 109 111 109 107 99 99 99 102 98 93 95 96 94 93 92 93 94 98 97 98 99 96 93 90 94 99 100 95 92 92 93 96 97 97 97 90 78 67 65 64 62 61 61 60 58 51 51 48 52 50 50 87 94 93 93 87 80 79 79 74 72 71 70
123 135 142 145 143 161 160 153 135 124 117 119 117 111 113 112 108 107 106 108 109 107 103 104 107 110 103 103 103 98 96 96 97 98 96 94 92 95 100 103 103 99 96 94 91 93 96 99 101 98 96 95 93 95 98 98 93 86 73 69 64 62 65 64 58 58 59 57 51 52 54 53 64 76 85 85 84 82 81 80 73 70 72 74 76
135 136 137 142 150 159 161 147 138 127 124 126 124 119 114 114 111 109 109 106 104 111 115 115 117 114 103 100 102 101 101 99 96 93 96 96 97 100 105 104 101 102 97 93 96 97 99 102 101 99 101 101 99 96 96 95 93 81 73 69 65 64 63 58 53 49 45 53 59 66 69 73 70 73 83 82 80 75 71 66 67 70 71 70 71
137 134 140 141 154 160 146 146 141 132 128 129 124 123 122 118 116 111 111 108 106 107 108 106 111 110 108 103 97 97 94 97 94 96 99 101 102 104 106 105 103 102 99 96 99 99 99 101 103 102 100 94 96 99 98 96 92 80 73 69 67 66 62 57 52 47 48 42 49 69 81 82 70 76 84 85 82 81 80 79 79 76 71 67 68
139 137 134 138 154 160 153 148 147 135 132 135 134 128 127 123 121 120 116 113 109 110 112 112 113 106 105 108 104 104 102 96 95 95 99 102 101 100 103 109 110 98 92 101 101 101 102 103 102 102 98 96 94 97 98 94 84 78 73 69 68 66 62 58 52 48 47 50 52 50 78 79 76 81 86 86 85 84 82 82 81 78 76 74 74
145 137 132 134 153 160 156 151 150 137 137 140 136 133 130 128 123 123 120 119 122 118 112 114 115 113 112 109 105 99 96 96 94 98 99 100 99 101 105 108 105 98 93 94 97 99 101 101 102 99 97 98 95 93 91 86 81 77 74 72 70 65 60 57 55 54 50 54 56 63 62 66 82 91 90 89 90 87 83 83 78 75 76 76 75
149 141 132 135 142 156 154 152 147 140 144 144 140 139 138 135 131 127 126 124 124 121 119 121 115 109 113 114 115 113 108 105 105 103 102 100 102 105 107 112 105 100 96 97 95 96 97 99 102 100 98 94 94 91 86 83 81 79 76 72 70 67 62 57 56 55 55 56 61 61 64 62 84 92 91 90 88 88 86 83 81 81 81 81 77
153 143 141 138 133 153 147 149 146 142 145 145 144 144 144 139 135 134 133 131 128 128 127 127 125 121 118 119 122 120 117 116 112 111 107 108 108 112 117 116 109 101 100 97 97 103 107 105 103 101 101 100 97 89 81 82 82 81 79 75 70 66 59 55 56 59 58 51 47 44 65 82 91 91 89 88 86 84 84 84 84 82 79 79 77
159 154 148 141 144 143 148 148 145 143 140 146 148 150 147 142 140 142 139 139 139 137 140 137 136 134 130 132 130 133 128 122 123 119 116 112 113 119 127 126 121 113 108 108 106 106 115 115 111 109 108 109 103 97 93 87 86 84 81 76 69 65 63 63 55 50 46 42 40 54 59 82 91 92 91 90 91 88 84 81 80 81 82 79 78
154 153 145 149 149 146 146 149 145 142 145 151 153 148 151 144 143 145 145 145 146 147 144 144 140 139 136 133 138 139 132 123 121 122 122 119 116 118 130 132 124 117 107 106 109 111 113 115 115 115 116 115 114 114 110 102 95 91 87 78 70 63 68 66 51 45 41 51 56 66 79 89 98 97 96 95 91 89 88 87 85 83 81 84 84
151 147 153 153 149 149 147 146 150 148 149 155 154 151 154 147 146 147 148 149 151 149 147 144 140 137 138 136 119 111 116 125 125 125 119 127 125 122 121 124 130 118 119 119 118 118 117 119 117 117 115 110 109 105 103 100 98 96 91 85 76 69 58 50 45 33 53 53 64 83 89 91 97 96 94 92 94 94 91 88 84 86 83 82 83
153 158 162 156 151 153 148 147 147 150 152 156 156 157 157 152 148 148 149 149 151 150 146 147 144 128 86 87 109 109 116 125 127 132 133 111 113 123 132 134 136 120 109 102 110 110 115 116 112 106 100 98 97 98 97 97 95 91 88 84 73 68 59 46 48 33 44 48 53 53 86 100 100 100 96 99 95 93 93 91 92 91 88 87 88
152 167 162 160 161 153 152 147 152 150 149 150 151 157 158 155 148 151 149 150 150 148 150 144 127 103 99 89 87 84 89 96 95 81 94 115 119 118 131 134 111 105 108 106 112 110 106 100 96 93 90 89 87 86 84 84 86 87 88 85 84 81 72 67 51 53 58 59 75 86 89 99 100 107 107 96 96 97 99 96 94 88 88 89 86
162 172 169 170 163 161 154 153 157 156 151 148 153 157 161 161 154 150 151 150 150 149 143 128 112 109 101 94 90 88 85 87 87 81 90 97 103 106 110 136 117 118 115 106 109 110 104 99 100 98 94 88 84 79 77 75 70 70 71 72 90 84 75 84 75 56 53 73 102 112 119 122 113 107 102 100 101 100 100 101 97 96 96 95 98
141 180 176 175 173 166 152 158 159 159 153 150 157 159 166 162 159 153 150 147 142 133 113 101 95 95 97 94 89 92 97 96 92 100 99 107 111 113 116 113 113 124 121 111 115 120 116 108 98 92 90 86 77 70 66 71 68 63 54 49 59 72 84 70 72 72 55 51 136 140 133 102 103 108 103 105 109 107 102 100 101 99 97 98 98
173 174 182 179 178 179 164 163 161 165 159 158 162 162 161 159 157 149 141 137 130 120 112 111 103 98 94 89 89 88 92 97 101 105 109 110 109 112 108 98 90 109 115 111 111 110 103 99 98 97 95 90 79 80 72 65 68 69 61 60 53 31 51 75 73 81 64 50 110 130 112 114 117 115 117 110 110 105 100 100 96 93 99 100 97
185 184 183 182 186 181 172 170 172 168 164 163 166 160 160 153 154 143 130 130 130 124 121 118 120 118 107 101 96 95 94 93 105 113 113 114 114 112 112 108 99 91 106 112 114 106 102 100 96 95 91 84 80 82 78 70 60 56 63 63 65 42 27 73 76 86 57 6 323 235 126 123 125 117 114 113 110 110 108 112 110 111 111 103 96
187 188 180 182 185 189 177 178 178 172 171 169 155 166 165 159 158 150 135 133 130 133 130 129 130 124 116 110 106 100 94 98 101 108 104 101 108 106 108 105 98 91 76 65 77 88 93 89 88 85 77 74 84 76 79 68 63 57 62 63 67 53 49 47 88 85 40 17 342 322 134 138 126 121 120 120 119 114 112 113 113 113 109 103 103
189 172 184 190 191 187 181 186 181 178 177 172 174 179 167 160 163 151 145 139 137 137 142 142 143 136 129 125 122 114 109 101 101 96 107 112 107 106 101 97 95 80 88 86 83 74 77 83 73 69 71 82 83 69 73 76 57 61 64 61 71 67 58 38 39 81 34 31 359 339 154 128 122 126 130 122 118 121 121 119 107 104 105 107 105
174 183 197 192 195 190 188 184 186 186 183 179 178 178 170 174 169 160 152 150 150 153 157 156 153 148 145 138 128 124 125 121 116 116 114 124 122 124 121 117 105 94 99 110 100 102 89 94 95 88 75 75 79 78 70 86 96 70 67 60 61 66 72 63 46 67 39 24 13 357 205 127 139 138 139 132 134 127 119 118 118 119 116 110 111
190 202 192 200 194 195 191 187 192 187 188 179 176 168 186 183 173 161 162 168 158 163 174 172 169 158 154 154 145 146 144 144 141 140 145 141 143 144 141 136 128 120 123 121 111 100 113 108 101 99 94 92 84 81 84 80 85 101 79 68 62 72 72 75 67 74 48 38 35 7 113 140 139 137 138 136 138 135 128 129 130 127 119 118 119
199 200 195 196 196 198 193 192 195 191 188 180 178 151 188 184 179 163 175 169 166 181 185 182 168 169 166 168 156 156 156 158 160 157 164 152 157 154 147 140 133 131 131 128 124 114 110 112 115 105 105 98 107 95 94 87 81 94 107 85 81 84 86 88 91 79 59 45 44 5 5 132 146 152 146 144 146 141 134 140 132 136 135 129 124
211 204 199 195 200 198 193 197 198 195 191 182 184 183 193 186 184 177 184 169 187 185 183 173 177 175 173 169 161 157 161 163 167 171 153 168 155 155 159 156 142 144 134 132 136 137 131 131 127 126 119 120 115 115 108 88 86 81 110 113 113 110 103 98 101 92 68 60 47 12 3 303 216 161 155 158 145 145 143 149 143 145 129 129 134
212 207 202 204 196 193 198 200 198 196 193 189 187 181 193 190 194 189 186 171 195 185 168 181 185 175 180 180 179 169 173 172 170 163 166 171 167 161 164 162 157 153 143 149 154 141 143 132 128 133 134 132 126 133 117 110 89 84 90 122 123 135 130 131 127 116 106 63 47 25 14 5 177 155 162 172 146 155 156 155 150 144 138 138 137
206 214 209 205 192 191 202 201 201 196 193 199 192 188 188 198 191 193 191 185 189 189 176 178 182 191 186 180 180 179 170 168 166 169 170 162 166 171 180 155 153 159 144 134 124 136 138 145 154 149 144 135 126 120 123 117 110 94 95 110 138 98 111 118 163 145 109 84 63 29 356 70 90 110 173 181 163 163 160 165 162 158 155 148 149
207 214 210 197 199 202 201 200 201 197 197 202 196 195 191 195 192 192 198 192 185 191 191 182 187 192 185 185 184 181 173 172 169 168 173 167 173 178 170 169 175 141 124 126 116 97 114 102 87 90 98 104 107 82 75 116 115 102 93 113 83 96 83 91 207 132 115 112 103 10 320 104 91 79 48 180 168 171 172 176 174 179 166 165 160
222 216 206 199 207 205 204 200 199 201 200 201 201 201 195 192 196 194 194 190 192 190 192 195 191 184 185 183 190 184 179 174 177 175 173 174 168 167 175 184 155 143 126 132 122 109 96 97 77 78 82 86 91 77 61 65 104 81 63 51 60 83 8 56 28 89 119 130 129 124 300 329 128 93 81 189 187 179 179 190 175 174 174 177 181
212 204 193 210 206 206 205 203 199 203 202 202 203 203 200 196 196 198 189 189 196 201 197 189 193 185 182 184 187 190 185 180 170 170 164 165 167 175 179 184 162 153 139 143 144 147 135 126 127 111 116 128 141 137 125 113 66 53 72 18 37 7 4 28 13 33 67 149 166 155 95 357 303 139 127 96 204 183 183 195 198 192 187 176 190
206 200 205 209 201 205 198 210 201 204 199 202 202 206 202 200 197 200 194 190 194 198 200 190 187 190 182 189 190 191 193 189 180 171 175 171 175 183 190 190 171 161 159 166 156 152 155 160 156 137 131 119 133 164 161 159 148 141 79 34 48 356 32 21 358 356 345 301 267 169 153 97 309 280 155 146 89 135 202 200 202 198 205 192 200
217 215 211 195 207 205 200 207 204 210 204 200 201 204 204 204 203 201 201 193 196 198 197 196 187 185 187 192 194 196 196 196 186 180 179 184 185 192 198 181 174 167 169 164 163 173 176 164 178 163 157 182 165 188 168 161 161 142 55 62 21 18 20 34 357 345 342 338 288 211 223 145 186 288 216 129 136 94 83 336 232 196 205 196 193
220 215 210 202 211 205 203 206 208 209 211 204 202 203 202 205 203 200 203 198 199 200 197 195 193 185 186 195 192 196 197 197 196 192 189 189 192 193 191 182 175 182 173 172 181 185 174 175 182 188 177 171 185 179 175 171 166 150 100 80 17 18 355 317 324 41 350 322 292 284 199 255 148 287 277 129 119 120 66 355 351 160 217 201 201
219 217 213 207 214 205 206 210 212 208 208 208 202 203 205 203 206 203 199 204 203 197 195 195 199 197 187 191 192 194 195 195 196 198 207 202 201 200 197 186 180 184 187 181 190 177 178 179 187 203 191 166 183 182 188 168 148 146 120 107 313 34 256 282 304 320 205 221 249 285 317 339 332 235 279 181 190 139 101 28 41 31 102 227 206
219 214 211 215 211 210 210 214 213 208 208 207 202 202 202 207 208 207 209 211 209 204 194 196 200 197 200 191 190 197 197 196 193 191 200 204 209 209 200 194 189 185 186 196 194 184 181 183 183 188 228 229 190 179 166 155 147 147 177 257 270 254 262 239 226 238 251 233 220 274 320 268 251 277 275 251 188 225 150 160 156 106 8 321 187
221 211 212 209 211 211 210 215 213 208 204 203 191 197 197 201 206 210 219 215 208 206 214 213 195 197 195 193 193 193 193 200 200 197 201 200 201 200 197 181 189 203 202 192 198 197 193 189 197 181 184 190 180 168 152 149 139 118 333 308 277 281 262 245 252 249 251 247 231 206 244 255 262 241 246 265 216 183 190 182 182 162 104 351 337
214 208 209 212 209 209 197 213 207 196 197 196 194 192 200 204 210 210 218 207 211 209 211 214 219 220 204 198 199 205 204 199 198 193 195 191 191 195 208 201 187 190 195 202 199 201 202 197 190 203 189 173 181 175 191 155 146 131 323 252 269 240 256 253 249 245 244 247 247 238 211 223 234 249 245 255 263 224 184 191 189 182 166 102 302
222 205 210 213 212 206 205 215 192 196 202 202 199 200 203 204 201 212 211 202 199 204 218 212 214 209 211 217 215 204 197 193 197 206 203 197 198 195 193 197 197 212 231 249 214 193 184 213 203 178 194 198 204 173 166 137 168 203 187 246 279 281 252 250 249 247 239 233 228 240 239 230 235 231 244 265 256 226 214 205 214 215 186 179 206
218 202 217 213 208 204 211 208 200 196 204 202 196 208 207 208 204 213 202 212 214 205 211 204 200 213 217 216 212 210 213 212 194 190 196 202 206 205 207 199 190 187 197 205 203 207 188 191 191 204 200 199 172 174 176 201 188 135 81 65 256 256 251 249 233 232 226 221 210 223 224 233 235 230 227 248 252 261 228 195 205 215 231 205 187
236 217 207 212 211 212 210 207 205 202 202 203 205 209 199 198 217 206 204 204 200 198 206 209 207 214 225 217 224 217 205 203 202 205 203 199 200 206 208 203 205 199 203 204 199 200 194 194 189 193 180 194 194 206 199 201 173 148 196 207 175 126 322 244 224 230 207 217 212 223 208 223 225 221 211 235 231 233 246 233 211 200 206 213 210
224 221 210 211 211 217 219 213 210 207 207 200 200 172 141 150 135 63 56 59 5 174 193 226 214 215 224 217 222 205 216 218 204 197 201 206 203 204 206 207 202 195 196 206 210 217 212 203 194 188 189 197 201 207 218 210 208 211 176 116 63 227 223 261 89 263 167 209 226 217 217 220 219 211 219 235 221 221 221 224 228 213 207 205 211
236 227 211 216 213 219 204 203 203 202 207 198 176 163 181 176 166 185 202 209 223 208 217 219 208 211 218 217 213 210 218 222 220 219 208 203 204 204 202 203 202 198 201 212 218 211 212 205 197 196 200 206 204 192 215 215 227 232 248 283 160 193 165 216 113 265 348 229 241 220 223 218 207 213 223 230 222 221 211 219 217 221 208 212 206
244 229 212 208 211 209 195 191 193 191 181 175 166 170 183 190 196 204 210 212 221 230 228 227 221 221 209 211 218 212 217 222 228 225 223 216 213 205 203 202 198 201 204 210 215 211 203 200 191 200 205 204 197 204 207 205 211 243 243 251 259 205 166 130 214 338 292 268 220 223 234 229 217 218 227 231 225 219 214 211 218 217 221 211 203
277 277 236 222 204 202 181 185 180 176 177 171 175 183 192 196 202 213 215 219 219 232 215 224 219 204 200 218 215 218 217 225 230 231 233 231 224 222 214 212 213 207 198 211 222 218 214 207 197 204 213 216 210 216 212 190 191 221 219 228 238 223 198 240 185 207 233 254 247 242 249 235 218 229 231 232 228 221 218 210 214 219 219 210 196
342 333 286 252 222 172 164 163 179 174 178 174 178 193 200 199 205 211 223 227 231 237 204 198 205 201 218 220 218 221 219 222 227 233 234 237 233 229 225 226 222 220 206 211 205 202 201 196 192 194 200 203 205 212 208 204 203 220 199 229 231 232 226 245 333 262 228 241 258 213 228 202 227 239 234 228 231 217 212 208 214 226 223 208 197
344 353 24 56 81 118 137 152 182 176 170 179 184 195 203 199 206 215 222 232 225 243 193 216 213 194 224 225 222 223 223 225 225 228 233 235 240 238 234 231 230 225 206 204 213 225 232 229 219 211 210 213 213 213 215 215 210 218 209 210 211 222 231 257 249 240 266 231 250 230 210 199 223 235 217 225 224 216 205 203 210 220 222 209 204
0 27 29 32 48 82 123 139 175 176 176 189 187 200 202 203 213 215 222 231 228 220 229 244 225 218 226 228 221 225 222 229 227 232 229 231 237 239 238 238 237 231 232 242 231 217 207 206 212 214 218 218 215 213 218 227 222 219 214 211 215 202 207 212 221 218 220 230 245 256 238 211 228 253 230 217 215 215 207 207 217 219 210 210 204